This demonstration page uses our WeatherBlox Daily Observations layout. Learn more.

Left ArrowRight Arrow

Hourly Observations for February 5, 2021

Temp ( °F °C ) Dew Point ( °F °C ) Humidity (%) Winds ( mph kmh ) Pressure ( in mb ) Visibility ( mi km ) Precip ( " mm )
12:54 am 00:54 Clear 28 -2.2 19 -7.2 69 69 WNW 13 20 29.86 1011 10 16.0934 0 0
1:54 am 01:54 Clear 28 -2.2 19 -7.2 69 69 WNW 10 17 29.87 1012 10 16.0934 0 0
2:54 am 02:54 Clear 26 -3.3 18 -7.8 71 71 NW 8 13 29.89 1012 10 16.0934 0 0
3:54 am 03:54 Clear 15 -9.4 11 -11.7 84 84 N 10 17 29.91 1013 10 16.0934 0 0
4:54 am 04:54 Clear 16 -8.9 11 -11.7 80 80 N 3 6 29.91 1013 10 16.0934 0 0
5:54 am 05:54 Clear 19 -7.2 12 -11.1 74 74 NW 5 7 29.92 1013 10 16.0934 0 0
6:54 am 06:54 Clear 14 -10 8 -13.3 77 77 Calm 29.95 1014 10 16.0934 0 0
7:54 am 07:54 Sunny 10 -12.2 5 -15 80 80 Calm 29.98 1015 10 16.0934 0 0
8:54 am 08:54 Sunny 13 -10.6 8 -13.3 81 81 SSW 3 6 29.97 1015 10 16.0934 0 0
9:54 am 09:54 Sunny 22 -5.6 8 -13.3 55 55 NW 7 11 29.98 1015 10 16.0934 0 0
10:54 am 10:54 Mostly Cloudy 24 -4.4 8 -13.3 50 50 NNW 12 19 29.99 1016 10 16.0934 0 0
11:54 am 11:54 Mostly Cloudy 24 -4.4 10 -12.2 55 55 NNW 8 13 29.97 1015 10 16.0934 0 0
12:54 pm 12:54 Cloudy 25 -3.9 11 -11.7 55 55 NW 10 17 29.96 1015 10 16.0934 0 0
1:54 pm 13:54 Mostly Cloudy 26 -3.3 12 -11.1 55 55 NNW 6 9 29.95 1014 10 16.0934 0 0
2:54 pm 14:54 Cloudy 27 -2.8 14 -10 58 58 NW 8 13 29.94 1014 10 16.0934 0 0
3:54 pm 15:54 Mostly Sunny 27 -2.8 14 -10 58 58 N 10 17 29.94 1014 10 16.0934 0 0
4:54 pm 16:54 Sunny 26 -3.3 13 -10.6 57 57 NW 7 11 29.97 1015 10 16.0934 0 0
5:54 pm 17:54 Clear 22 -5.6 12 -11.1 66 66 NNE 3 6 29.98 1015 10 16.0934 0 0
6:54 pm 18:54 Clear 22 -5.6 12 -11.1 66 66 W 3 6 30.01 1016 10 16.0934 0 0
7:54 pm 19:54 Clear 12 -11.1 6 -14.4 77 77 Calm 30.04 1017 10 16.0934 0 0
8:54 pm 20:54 Clear 9 -12.8 4 -15.6 80 80 Calm 30.04 1017 10 16.0934 0 0
9:54 pm 21:54 Clear 8 -13.3 4 -15.6 83 83 Calm 30.04 1017 10 16.0934 0 0
10:54 pm 22:54 Clear 8 -13.3 3 -16.1 80 80 Calm 30.05 1018 10 16.0934 0 0
11:54 pm 23:54 Mostly Clear 10 -12.2 5 -15 80 80 N 8 13 30.04 1017 10 16.0934 0 0

Powered by AerisWeather